EW4022 Weather Reports


Display with metric or nautical units.
time (UTC)temp
F
wind
direction
speed
MPH
gust
MPH
rain 1hr
in
rain 24hr
in
rain mn
in
humidity
%
barometer
mb
20260505090057 52 230 0.0 0.0 0.00 0.00 0.00 80 974.4
20260505085556 52 230 0.0 0.0 0.00 0.00 0.00 80 974.3
20260505085056 52 230 0.0 0.0 0.00 0.00 0.00 80 974.3
20260505084556 52 230 0.0 0.0 0.00 0.00 0.00 80 974.3
20260505084056 52 230 0.0 0.0 0.00 0.00 0.00 80 974.3
20260505083557 52 230 0.0 0.0 0.00 0.00 0.00 80 974.1
20260505083059 52 230 0.0 0.0 0.00 0.00 0.00 79 974.0
20260505082552 52 230 0.0 0.0 0.00 0.00 0.00 79 973.9
20260505082051 52 230 0.0 0.0 0.00 0.00 0.00 78 973.9
20260505081555 52 230 0.0 0.0 0.00 0.00 0.00 78 973.8
20260505081053 52 230 0.0 0.0 0.00 0.00 0.00 77 973.9
20260505080549 52 230 0.0 0.0 0.00 0.00 0.00 77 973.9
20260505080051 53 230 0.0 0.0 0.00 0.00 0.00 76 973.9
20260505075548 53 230 0.0 0.0 0.00 0.00 0.00 76 973.8
20260505075046 53 230 0.0 0.0 0.00 0.00 0.00 76 973.8
20260505074546 53 230 0.0 0.0 0.00 0.00 0.00 76 973.7
20260505074045 53 230 0.0 0.0 0.00 0.00 0.00 76 973.8
20260505073544 53 230 0.0 0.0 0.00 0.00 0.00 76 973.7
20260505073052 53 230 0.0 0.0 0.00 0.00 0.00 76 973.7
20260505072542 54 230 0.0 0.0 0.00 0.00 0.00 75 973.6
20260505072042 54 230 0.0 3.0 0.00 0.00 0.00 75 973.6
20260505071553 54 230 0.0 3.0 0.00 0.00 0.00 75 973.6
20260505071042 54 230 0.0 1.0 0.00 0.00 0.00 74 973.6
20260505070540 54 230 0.0 1.0 0.00 0.00 0.00 74 973.5
20260505070040 54 230 0.0 1.0 0.00 0.00 0.00 74 973.4
20260505065539 54 230 0.0 0.0 0.00 0.00 0.00 73 973.4
20260505065042 54 230 0.0 0.0 0.00 0.00 0.00 73 973.4
20260505064540 54 230 0.0 0.0 0.00 0.00 0.00 72 973.4
20260505064042 55 230 0.0 0.0 0.00 0.00 0.00 72 973.5
20260505063536 55 230 0.0 0.0 0.00 0.00 0.00 71 973.4
20260505063035 55 230 0.0 0.0 0.00 0.00 0.00 71 973.4
20260505062535 55 230 0.0 1.0 0.00 0.00 0.00 71 973.3
20260505062034 55 230 0.0 1.0 0.00 0.00 0.00 70 973.3
20260505061534 56 230 0.0 2.0 0.00 0.00 0.00 70 973.3
20260505061031 56 230 0.0 2.0 0.00 0.00 0.00 70 973.3
20260505060530 56 230 0.0 2.0 0.00 0.00 0.00 69 973.4
20260505060042 56 230 0.0 2.0 0.00 0.00 0.00 69 973.4
20260505055532 57 230 0.0 0.0 0.00 0.00 0.00 69 973.3
20260505055029 57 230 0.0 0.0 0.00 0.00 0.00 69 973.3
20260505054529 57 230 0.0 0.0 0.00 0.00 0.00 68 973.3
20260505054025 57 230 0.0 0.0 0.00 0.00 0.00 67 973.2
20260505053525 58 230 0.0 1.0 0.00 0.00 0.00 67 973.2
20260505053026 58 230 0.0 2.0 0.00 0.00 0.00 66 973.2
20260505052522 59 230 0.0 1.0 0.00 0.00 0.00 66 973.3
20260505052023 59 230 0.0 0.0 0.00 0.00 0.00 65 973.1
20260505051525 60 230 0.0 0.0 0.00 0.00 0.00 64 973.2
20260505051019 60 230 0.0 2.0 0.00 0.00 0.00 63 973.2
20260505050520 61 230 0.0 2.0 0.00 0.00 0.00 63 973.1
20260505041518 64 206 1.0 4.0 0.00 0.00 0.00 56 973.0
20260505041015 64 236 0.0 4.0 0.00 0.00 0.00 58 973.0
20260505040509 63 236 1.0 4.0 0.00 0.00 0.00 59 973.1
20260505040007 62 254 0.0 4.0 0.00 0.00 0.00 61 973.1
20260505035506 60 208 0.0 3.0 0.00 0.00 0.00 66 973.1
20260505035007 58 256 0.0 2.0 0.00 0.00 0.00 71 973.1
20260505034506 58 255 0.0 2.0 0.00 0.00 0.00 74 973.1
20260505034007 58 255 0.0 2.0 0.00 0.00 0.00 74 973.2
20260505033506 57 256 0.0 0.0 0.00 0.00 0.00 74 973.2
20260505033006 57 255 0.0 0.0 0.00 0.00 0.00 74 973.2
20260505032505 57 255 0.0 0.0 0.00 0.00 0.00 74 973.3
20260505032007 58 255 0.0 2.0 0.00 0.00 0.00 74 973.3
20260505031506 58 255 0.0 2.0 0.00 0.00 0.00 74 973.2
20260505031005 58 255 0.0 0.0 0.00 0.00 0.00 74 973.2
20260505030505 58 255 0.0 0.0 0.00 0.00 0.00 73 973.2
20260505030006 58 255 0.0 0.0 0.00 0.00 0.00 73 973.2
20260505025507 58 256 0.0 0.0 0.00 0.00 0.00 73 973.3
20260505025004 58 256 0.0 1.0 0.00 0.00 0.00 72 973.3
20260505024509 58 255 0.0 1.0 0.00 0.00 0.00 72 973.3
20260505024004 58 255 0.0 0.0 0.00 0.00 0.00 72 973.3
20260505023504 58 256 0.0 0.0 0.00 0.00 0.00 72 973.3
20260505023013 59 255 0.0 0.0 0.00 0.00 0.00 72 973.3
20260505022504 59 255 0.0 2.0 0.00 0.00 0.00 72 973.4
20260505022004 59 255 0.0 2.0 0.00 0.00 0.00 72 973.4
20260505021503 59 255 0.0 2.0 0.00 0.00 0.00 71 973.4
20260505021006 59 255 0.0 2.0 0.00 0.00 0.00 71 973.4
20260505020502 59 255 0.0 2.0 0.00 0.00 0.00 71 973.4
20260505020002 60 256 1.0 2.0 0.00 0.00 0.00 71 973.3
20260505015502 60 255 1.0 2.0 0.00 0.00 0.00 70 973.4
20260505015002 60 256 1.0 2.0 0.00 0.00 0.00 70 973.4
20260505014506 60 256 0.0 2.0 0.00 0.00 0.00 70 973.4
20260505014004 60 255 0.0 0.0 0.00 0.00 0.00 69 973.2
20260505013501 60 255 0.0 0.0 0.00 0.00 0.00 69 973.1
20260505013002 61 255 0.0 0.0 0.00 0.00 0.00 69 973.1
20260505012502 61 255 0.0 0.0 0.00 0.00 0.00 69 973.1
20260505012002 61 256 0.0 1.0 0.00 0.00 0.00 68 973.0
20260505011501 61 255 0.0 1.0 0.00 0.00 0.00 68 972.9
20260505011001 62 255 0.0 2.0 0.00 0.00 0.00 68 972.8
20260505010603 62 256 0.0 2.0 0.00 0.00 0.00 68 972.7
20260505010118 62 255 0.0 0.0 0.00 0.00 0.00 68 972.7
20260505005600 62 255 0.0 0.0 0.00 0.00 0.00 68 972.6
20260505005100 63 255 0.0 3.0 0.00 0.00 0.00 67 972.5
20260505004600 63 256 0.0 3.0 0.00 0.00 0.00 67 972.4
20260505004059 63 255 2.0 3.0 0.00 0.00 0.00 67 972.3
20260505003603 64 256 1.0 2.0 0.00 0.00 0.00 65 972.3
20260505003105 64 256 1.0 2.0 0.00 0.00 0.00 64 972.1
20260505002601 65 255 1.0 2.0 0.00 0.00 0.00 63 972.1
20260505002059 66 255 0.0 2.0 0.00 0.00 0.00 61 972.1
20260505001559 66 255 0.0 1.0 0.00 0.00 0.00 60 972.1
20260505001058 67 255 0.0 2.0 0.00 0.00 0.00 58 972.1
20260505000559 68 255 0.0 2.0 0.00 0.00 0.00 57 972.1
20260505000108 69 255 0.0 0.0 0.00 0.00 0.00 55 972.1
20260504235558 70 255 0.0 1.0 0.00 0.00 0.00 54 972.0
20260504235100 71 255 0.0 2.0 0.00 0.00 0.00 52 972.0
20260504234558 72 255 0.0 4.0 0.00 0.00 0.00 49 971.9
20260504234100 72 242 0.0 4.0 0.00 0.00 0.00 47 971.9
20260504233557 73 242 0.0 3.0 0.00 0.00 0.00 46 971.8
20260504233106 73 242 0.0 5.0 0.00 0.00 0.00 46 971.8
20260504232559 74 242 1.0 6.0 0.00 0.00 0.00 47 971.7
20260504232058 74 271 0.0 4.0 0.00 0.00 0.00 47 971.7
20260504231557 75 271 0.0 4.0 0.00 0.00 0.00 44 971.7
20260504231056 75 31 0.0 6.0 0.00 0.00 0.00 43 971.7
20260504230558 75 28 2.0 6.0 0.00 0.00 0.00 42 971.7
20260504230104 76 25 0.0 9.0 0.00 0.00 0.00 43 971.7
20260504225556 76 37 3.0 9.0 0.00 0.00 0.00 42 971.7
20260504225055 76 17 0.0 4.0 0.00 0.00 0.00 42 971.8
20260504224555 76 9 1.0 7.0 0.00 0.00 0.00 41 971.8
20260504224055 76 271 1.0 7.0 0.00 0.00 0.00 42 971.8
20260504223555 76 251 2.0 6.0 0.00 0.00 0.00 41 971.8
20260504223100 76 21 2.0 8.0 0.00 0.00 0.00 42 971.8
20260504222557 77 15 3.0 8.0 0.00 0.00 0.00 41 971.8
20260504222053 77 25 0.0 3.0 0.00 0.00 0.00 43 971.9
20260504221553 77 26 0.0 11.0 0.00 0.00 0.00 43 972.0
20260504221052 77 25 2.0 11.0 0.00 0.00 0.00 42 972.0
20260504220552 77 61 1.0 6.0 0.00 0.00 0.00 44 972.0
20260504220052 77 5 1.0 7.0 0.00 0.00 0.00 43 972.0
20260504215551 77 48 2.0 9.0 0.00 0.00 0.00 42 972.1
20260504215051 77 22 4.0 9.0 0.00 0.00 0.00 42 972.1
20260504214606 77 9 2.0 9.0 0.00 0.00 0.00 43 972.2
20260504214050 78 9 1.0 6.0 0.00 0.00 0.00 43 972.2
20260504213550 78 275 2.0 6.0 0.00 0.00 0.00 42 972.3
20260504213057 77 14 2.0 9.0 0.00 0.00 0.00 44 972.3
20260504212549 77 270 2.0 9.0 0.00 0.00 0.00 44 972.3
20260504212050 77 29 2.0 9.0 0.00 0.00 0.00 43 972.2
20260504211553 77 34 3.0 9.0 0.00 0.00 0.00 43 972.3
20260504211050 77 86 2.0 10.0 0.00 0.00 0.00 44 972.3
20260504210550 77 35 4.0 10.0 0.00 0.00 0.00 43 972.3
20260504210048 77 17 4.0 8.0 0.00 0.00 0.00 44 972.2
20260504205548 77 9 2.0 12.0 0.00 0.00 0.00 45 972.1
20260504205047 77 14 5.0 12.0 0.00 0.00 0.00 44 972.2
20260504204551 77 360 3.0 9.0 0.00 0.00 0.00 44 972.1
20260504204047 77 5 4.0 12.0 0.00 0.00 0.00 45 972.2
20260504203546 77 78 3.0 12.0 0.00 0.00 0.00 44 972.2
20260504203046 76 360 1.0 11.0 0.00 0.00 0.00 45 972.1
20260504202544 76 18 2.0 5.0 0.00 0.00 0.00 46 972.2
20260504202044 75 36 0.0 9.0 0.00 0.00 0.00 46 972.1
20260504201558 75 36 3.0 9.0 0.00 0.00 0.00 46 972.2
20260504201044 75 11 2.0 8.0 0.00 0.00 0.00 47 972.6
20260504200541 75 39 2.0 8.0 0.00 0.00 0.00 46 972.7
20260504200042 76 33 2.0 8.0 0.00 0.00 0.00 45 972.8
20260504195539 76 13 3.0 6.0 0.00 0.00 0.00 44 972.8
20260504195039 76 9 2.0 13.0 0.00 0.00 0.00 45 972.7
20260504194541 75 26 4.0 13.0 0.00 0.00 0.00 45 972.8
20260504194037 75 270 0.0 10.0 0.00 0.00 0.00 47 972.9
20260504193537 75 52 4.0 10.0 0.00 0.00 0.00 46 972.9
20260504193036 74 13 1.0 5.0 0.00 0.00 0.00 47 973.0
20260504192534 74 12 2.0 11.0 0.00 0.00 0.00 47 973.0
20260504192034 74 10 5.0 11.0 0.00 0.00 0.00 46 973.2
20260504191534 74 65 2.0 6.0 0.00 0.00 0.00 46 973.3
20260504191032 75 12 2.0 7.0 0.00 0.00 0.00 47 973.3
20260504190534 74 26 2.0 8.0 0.00 0.00 0.00 47 973.4
20260504190030 74 24 2.0 8.0 0.00 0.00 0.00 49 973.4
20260504185530 74 208 2.0 9.0 0.00 0.00 0.00 47 973.5
20260504185030 74 12 3.0 11.0 0.00 0.00 0.00 46 973.5
20260504184534 74 15 3.0 11.0 0.00 0.00 0.00 46 973.5
20260504184030 73 272 3.0 9.0 0.00 0.00 0.00 47 973.4
20260504183529 73 270 3.0 9.0 0.00 0.00 0.00 48 973.5
20260504183028 72 24 3.0 11.0 0.00 0.00 0.00 48 973.8
20260504182527 72 31 3.0 11.0 0.00 0.00 0.00 47 973.8
20260504182026 72 271 2.0 9.0 0.00 0.00 0.00 48 973.9
20260504181531 72 17 3.0 9.0 0.00 0.00 0.00 47 974.0
20260504181024 73 42 2.0 9.0 0.00 0.00 0.00 47 974.2
20260504180523 72 271 1.0 5.0 0.00 0.00 0.00 47 974.1
20260504180024 73 360 2.0 5.0 0.00 0.00 0.00 47 974.2
20260504175523 73 5 2.0 6.0 0.00 0.00 0.00 46 974.1
20260504175023 73 261 2.0 12.0 0.00 0.00 0.00 46 974.3
20260504174522 73 100 2.0 12.0 0.00 0.00 0.00 47 974.3
20260504174023 73 34 3.0 12.0 0.00 0.00 0.00 44 974.3
20260504173522 74 24 5.0 13.0 0.00 0.00 0.00 44 974.2
20260504173021 74 9 6.0 13.0 0.00 0.00 0.00 45 974.2
20260504172522 74 42 4.0 10.0 0.00 0.00 0.00 45 974.3
20260504172021 72 360 3.0 10.0 0.00 0.00 0.00 45 974.5
20260504171519 73 270 1.0 11.0 0.00 0.00 0.00 48 974.5
20260504171021 72 274 3.0 11.0 0.00 0.00 0.00 45 974.5
20260504170516 73 5 3.0 9.0 0.00 0.00 0.00 46 974.6
20260504151059 67 41 5.0 12.0 0.00 0.00 0.00 47 976.0
20260504150557 67 34 4.0 16.0 0.00 0.00 0.00 46 976.0
20260504141048 64 261 3.0 8.0 0.00 0.00 0.00 50 976.4
20260504140548 64 231 4.0 10.0 0.00 0.00 0.00 50 976.5
20260504130536 60 46 2.0 9.0 0.00 0.00 0.00 52 976.3
20260504110513 48 15 0.0 2.0 0.00 0.00 0.00 71 976.5
20260504100508 47 15 0.0 2.0 0.00 0.00 0.00 70 976.3